Location: Ch�ze
(42.9000°N, 0.0333°W)
Time: 00:16:55
(UTC+00:00)

Cosmos 2082 Rocket - Pass Details

Date: 24 January 2021
Orbit: 832 x 855 km, 71.0° (Epoch: 24 February)

Event Time Altitude Azimuth Distance (km) Brightness Sun altitude
Rises 18:35:41 0° 344° (NNW) 3,435 5.5 -17.0°
Reaches altitude 10° 18:38:38 10° 357° (N) 2,494 4.6 -17.5°
Enters shadow 18:42:51 24° 45° (NE) 1,689 3.3 -18.3°
